Flag Weather past 2 weeks in Allahabad, Uttar Pradesh, India

Now
77 °F

Haze.


Feels Like: 78 °F
Forecast: 54 / 81 °F
Wind: 2 mph from North

Location: Varanasi / Babatpur

Current Time: Nov 26, 2014 at 4:45:46 PM

Latest Report: Nov 26, 2014 at 4:00 PM


Visibility: 2 mi

Pressure: 29.80 "Hg

Humidity: 36%

Dew point: 48 °F

Location of AllahabadLocation

Historic Weather in Allahabad — Graph

°F

Allahabad temperature yesterday

Maximum temperature yesterday: 79 °F (at 3:00 PM)
Minimum temperature yesterday: 55 °F (at 6:00 AM)
Average temperature yesterday: 64 °F

Past Weeks' High & Low Weather Summary

 TemperatureHumidityPressure
High86 °F (Nov 12, 3:00 PM)94% (Nov 12, 4:00 AM)30.09 "Hg (Nov 12, 4:00 AM)
Low55 °F (Nov 25, 6:00 AM)30% (Nov 16, 3:00 PM)29.71 "Hg (Nov 20, 12:00 PM)
Average70 °F63%29.96 "Hg
* Reported Nov 11 4:00 PM — Nov 26 3:00 PM, Allahabad, Weather by CustomWeather, © 2014

Note: Actual official high and low records may vary slightly from our data, if they occured in-between our weather recording intervals... More about our weather records

Advertising

Allahabad weather history for previous 24 hours

 ConditionsComfort  
Time TempWeatherWind HumidityBarometerVisibility
3:00 PM
Nov 26
79 °FHaze.7 mph37%29.80 "Hg2 mi
2:00 PM79 °FHaze.7 mph32%29.83 "Hg2 mi
1:00 PM77 °FHaze.8 mph42%29.86 "Hg2 mi
12:00 PM75 °FHaze.7 mph34%29.89 "Hg2 mi
11:00 AM73 °FHaze.7 mph47%29.92 "Hg2 mi
9:00 AM63 °FHaze.5 mph64%29.95 "Hg1 mi
8:00 AM57 °FHaze.5 mph77%29.92 "Hg1 mi
7:00 AM55 °FFog.3 mph88%29.89 "Hg1 mi
6:00 AM55 °FHaze.2 mph88%29.89 "Hg1 mi
5:00 AM57 °FHaze.3 mph77%29.86 "Hg1 mi
4:00 AM57 °FHaze.3 mph77%29.86 "Hg1 mi
12:00 AM57 °FHaze.2 mph88%29.92 "Hg1 mi
11:00 PM
Nov 25
61 °FHaze.3 mph77%29.92 "Hg1 mi
10:00 PM63 °FHaze.3 mph77%29.92 "Hg1 mi
9:00 PM64 °FHaze.1 mph73%29.95 "Hg2 mi
8:00 PM66 °FHaze.2 mph64%29.95 "Hg2 mi
7:00 PM66 °FHaze.2 mph60%29.92 "Hg2 mi
Weather by CustomWeather, © 2014

See weather overviewHow to use our weather pages